Zurück zum Katalog

DELTA 1 DEB

AktivSSO
NORAD 39095·DEBRIS·🇺🇸 United States

Gestartet Nov 6, 1973 von Vandenberg Space Force Base

Loading…

Nächste Überflüge (nächste 24 Stunden)

TLE

AktuellSource: Space-Track

Epoche: Sep 13, 2026, 08:00 UTC

1 39095U 73086HH  26256.33391213 -.00000003  00000-0  35590-3 0  9995
2 39095 102.4828 274.7022 0059167  84.4406 276.3395 12.31008932588297

Verfolge DELTA 1 DEB in Echtzeit mit AllMySat

Download on the App Store